Location: Freistadt
(48.5112°N, 14.5013°E)
Time: 15:26:56
(UTC+01:00)

VELOX 1 - Visible Passes

Search period start: 25 March 2023 00:00
Search period end: 04 April 2023 01:00
Orbit: 618 x 633 km, 98.4° (Epoch: 25 March)

Date Brightness Start Highest point End Pass type
(mag) Time Alt. Az. Time Alt. Az. Time Alt. Az.
25 Mar ? 04:03:30 10° E 04:06:17 17° ENE 04:09:02 10° NNE visible
25 Mar ? 18:57:56 10° N 19:02:13 61° WNW 19:06:28 10° SSW visible
26 Mar ? 05:21:37 10° ESE 05:25:05 24° ENE 05:28:34 10° N visible
26 Mar ? 20:17:05 10° N 20:21:09 40° WNW 20:25:10 10° SW visible
27 Mar ? 05:40:00 10° SE 05:43:55 34° ENE 05:47:53 10° N visible
27 Mar ? 20:36:20 10° N 20:39:59 27° WNW 20:43:38 10° WSW visible
28 Mar ? 05:58:35 10° SE 06:02:48 50° ENE 06:07:02 10° N visible
28 Mar ? 20:55:42 10° NNW 20:58:46 19° WNW 21:01:50 10° WSW visible
29 Mar ? 04:45:01 10° ENE 04:46:17 11° NE 04:47:33 10° NE visible
29 Mar ? 21:15:22 10° NNW 21:17:30 14° WNW 21:19:37 10° W visible
30 Mar ? 05:02:21 10° E 05:04:59 16° ENE 05:07:36 10° NNE visible
30 Mar ? 19:56:33 10° N 20:00:51 64° WNW 20:05:06 10° SSW visible
31 Mar ? 05:20:19 10° ESE 05:23:41 22° ENE 05:27:05 10° NNE visible
31 Mar ? 20:15:35 10° N 20:19:41 42° WNW 20:23:45 10° SW visible
01 Apr ? 05:38:35 10° SE 05:42:26 32° ENE 05:46:19 10° N visible
01 Apr ? 20:34:43 10° N 20:38:27 29° WNW 20:42:10 10° SW visible
02 Apr ? 05:57:03 10° SE 06:01:13 47° ENE 06:05:25 10° N visible
02 Apr ? 20:53:59 10° NNW 20:57:09 20° WNW 21:00:19 10° WSW visible
03 Apr ? 04:43:52 10° ENE 04:44:40 10° NE 04:45:28 10° NE visible
03 Apr ? 21:13:29 10° NNW 21:15:48 14° WNW 21:18:07 10° W visible
